This is the latest recevied weather packets stored in our database for station/object VE9LJW. If no packets are shown the sender has not sent any weather packets the latest 1 day(s).
| Time | Temp. | Humidity | Pressure | Rain* | Wind** | Luminosity | Snow |
|---|---|---|---|---|---|---|---|
| 1778023327 | 17.78° C | 76% | 1002.6 hPa | 0 mm | 3.58 m/s, 178° | 5 W/m² | - |
| 1778023024 | 17.78° C | 76% | 1002.6 hPa | 0 mm | 3.13 m/s, 218° | 9 W/m² | - |
| 1778022723 | 17.78° C | 76% | 1003 hPa | 0 mm | 2.24 m/s, 198° | 11 W/m² | - |
| 1778022420 | 17.22° C | 77% | 1003 hPa | 0 mm | 2.24 m/s, 204° | 17 W/m² | - |
| 1778022117 | 17.22° C | 76% | 1002.8 hPa | 0 mm | 1.34 m/s, 225° | 20 W/m² | - |
| 1778021813 | 17.22° C | 76% | 1002.9 hPa | 0 mm | 4.47 m/s, 177° | 22 W/m² | - |
| 1778021509 | 17.22° C | 76% | 1002.8 hPa | 0 mm | 1.34 m/s, 193° | 24 W/m² | - |
| 1778021205 | 17.22° C | 76% | 1002.6 hPa | 0 mm | 2.24 m/s, 193° | 28 W/m² | - |
| 1778020903 | 17.78° C | 76% | 1002.5 hPa | 0 mm | 2.68 m/s, 195° | 29 W/m² | - |
| 1778020595 | 17.78° C | 75% | 1002.6 hPa | 0 mm | 2.24 m/s, 240° | 32 W/m² | - |
| 1778020291 | 17.78° C | 75% | 1002.7 hPa | 0 mm | 1.79 m/s, 250° | 35 W/m² | - |
| 1778019987 | 17.78° C | 74% | 1002.7 hPa | 0 mm | 2.24 m/s, 147° | 43 W/m² | - |
| 1778019683 | 18.33° C | 74% | 1002.6 hPa | 0 mm | 4.47 m/s, 210° | 53 W/m² | - |
| 1778019380 | 18.33° C | 74% | 1002.7 hPa | 0 mm | 1.79 m/s, 210° | 65 W/m² | - |
| 1778019077 | 18.33° C | 74% | 1002.3 hPa | 0 mm | 1.79 m/s, 329° | 71 W/m² | - |
| 1778018775 | 18.33° C | 74% | 1002.2 hPa | 0 mm | 1.79 m/s, 154° | 77 W/m² | - |
| 1778018472 | 18.89° C | 73% | 1002.3 hPa | 0 mm | 3.13 m/s, 201° | 91 W/m² | - |
| 1778018170 | 18.89° C | 72% | 1002.3 hPa | 0 mm | 2.24 m/s, 205° | 100 W/m² | - |
| 1778017868 | 18.89° C | 72% | 1002.3 hPa | 0 mm | 0.89 m/s, 203° | 93 W/m² | - |
| 1778017566 | 18.89° C | 72% | 1002.6 hPa | 0 mm | 0.89 m/s, 199° | 97 W/m² | - |
| 1778017262 | 18.89° C | 71% | 1002.4 hPa | 0 mm | 4.02 m/s, 198° | 104 W/m² | - |
| 1778016960 | 18.89° C | 71% | 1002.4 hPa | 0 mm | 2.24 m/s, 246° | 109 W/m² | - |
| 1778016656 | 19.44° C | 70% | 1002.3 hPa | 0 mm | 3.58 m/s, 216° | 110 W/m² | - |
| 1778016352 | 19.44° C | 69% | 1002.2 hPa | 0 mm | 3.13 m/s, 231° | 119 W/m² | - |
| 1778016050 | 20° C | 69% | 1002 hPa | 0 mm | 2.24 m/s, 219° | 122 W/m² | - |
* Rain latest hour (hover to see other rain measurements)
** Current wind speed in m/s (hover to see current wind gust speed)